User: anonymous   Login
Location: Unspecified
(0.0000°N, 0.0000°E)
Time: 04:36:26
(UTC+02:00)
Language:

Cosmos 1263 Rocket - Orbit

View from above orbital plane
View from above orbital plane
View from above satellite
View from above satellite

Ground track
Ground track

The orbit data is extracted from the following two-line orbital elements,

1 12389U 81033B   15125.82937020  .00142514  52050-5  60972-3 0  9994
2 12389 082.8552 148.4247 0082602 007.6009 045.4696 15.79779259759685
Epoch (UTC): 05 May 2015 19:54:17
Eccentricity: 0.0082602
inclination: 82.8552°
perigee height: 275 km
apogee height: 386 km
right ascension of ascending node: 148.4247°
argument of perigee: 7.6009°
revolutions per day: 15.79779259
mean anomaly at epoch: 45.4696°
orbit number at epoch: 75968

The dashed part of the orbit path shows where the satellite is in the earth's shadow,  

DLR